FW2343 Weather Reports


Display with metric or nautical units.
time (UTC)temp
F
wind
direction
speed
MPH
gust
MPH
rain 1hr
in
rain 24hr
in
rain mn
in
humidity
%
barometer
mb
20260507103213 64 279 1.0 10.0 0.00 0.08 0.00 59 1014.0
20260507102712 64 251 2.0 5.0 0.00 0.08 0.00 57 1014.0
20260507102209 64 262 1.0 7.0 0.00 0.08 0.00 57 1013.9
20260507101235 63 279 2.0 7.0 0.00 0.08 0.00 57 1014.0
20260507100707 63 281 3.0 7.0 0.00 0.08 0.00 61 1014.1
20260507100217 63 352 3.0 7.0 0.00 0.08 0.00 62 1014.1
20260507095716 63 19 3.0 7.0 0.00 0.08 0.00 67 1014.1
20260507095218 62 129 0.0 5.0 0.00 0.08 0.00 65 1014.2
20260507094717 63 125 0.0 5.0 0.00 0.08 0.00 64 1014.2
20260507093738 61 73 1.0 8.0 0.00 0.08 0.00 67 1014.3
20260507093217 61 333 1.0 8.0 0.00 0.08 0.00 66 1014.2
20260507092710 61 279 1.0 5.0 0.00 0.08 0.00 66 1014.2
20260507092210 61 0 0.0 5.0 0.00 0.08 0.00 65 1014.2
20260507090714 61 226 2.0 10.0 0.00 0.08 0.00 66 1014.3
20260507090214 60 213 2.0 0.0 0.00 0.08 0.00 70 1014.3
20260507085719 60 0 0.0 0.0 0.00 0.08 0.00 70 1014.3
20260507084717 60 0 0.0 1.0 0.00 0.08 0.00 71 1014.3
20260507083717 59 300 0.0 4.0 0.00 0.08 0.00 71 1014.3
20260507082717 59 261 0.0 4.0 0.00 0.08 0.00 74 1014.3
20260507082217 58 0 0.0 0.0 0.00 0.08 0.00 72 1014.3
20260507081705 59 0 0.0 0.0 0.00 0.08 0.00 74 1014.4
20260507081218 59 0 0.0 0.0 0.00 0.08 0.00 74 1014.4
20260507080709 58 0 0.0 0.0 0.00 0.08 0.00 75 1014.4
20260507080210 58 0 0.0 0.0 0.00 0.08 0.00 77 1014.4
20260507075711 57 0 0.0 0.0 0.00 0.08 0.00 76 1014.4
20260507075215 57 0 0.0 0.0 0.00 0.08 0.00 77 1014.4
20260507074705 57 0 0.0 0.0 0.00 0.08 0.00 77 1014.4
20260507074212 57 0 0.0 0.0 0.00 0.08 0.00 77 1014.3
20260507073718 57 0 0.0 0.0 0.00 0.08 0.00 79 1014.3
20260507072710 55 0 0.0 0.0 0.00 0.08 0.00 83 1014.4
20260507071716 54 0 0.0 0.0 0.00 0.08 0.00 86 1014.4
20260507071207 53 0 0.0 0.0 0.00 0.08 0.00 87 1014.5
20260507070707 53 0 0.0 0.0 0.00 0.08 0.00 87 1014.6
20260507070218 52 0 0.0 0.0 0.00 0.08 0.00 88 1014.6
20260507065712 52 0 0.0 0.0 0.00 0.08 0.00 88 1014.6
20260507065209 52 0 0.0 0.0 0.00 0.08 0.00 90 1014.6
20260507064213 51 0 0.0 0.0 0.00 0.08 0.00 91 1014.5
20260507063710 51 0 0.0 0.0 0.00 0.08 0.00 91 1014.7
20260507063212 50 0 0.0 4.0 0.00 0.08 0.00 92 1014.7
20260507062710 50 0 0.0 6.0 0.00 0.08 0.00 92 1014.7
20260507062218 49 208 0.0 6.0 0.00 0.08 0.00 93 1014.6
20260507061717 49 180 3.0 6.0 0.00 0.08 0.00 93 1014.6
20260507061206 49 217 3.0 6.0 0.00 0.08 0.00 93 1014.5
20260507060714 49 212 4.0 6.0 0.00 0.08 0.00 93 1014.7
20260507060207 48 203 2.0 4.0 0.00 0.08 0.00 94 1014.8
20260507055717 48 236 2.0 4.0 0.00 0.08 0.00 94 1014.7
20260507054207 48 232 2.0 5.0 0.00 0.08 0.00 95 1014.5
20260507053216 47 205 1.0 4.0 0.00 0.08 0.00 95 1014.5
20260507052705 47 220 2.0 4.0 0.00 0.08 0.00 95 1014.4
20260507052209 47 243 0.0 0.0 0.00 0.08 0.00 95 1014.4
20260507051712 46 0 0.0 1.0 0.00 0.08 0.00 95 1014.3
20260507051213 46 239 0.0 1.0 0.00 0.08 0.00 95 1014.4
20260507050706 46 239 0.0 2.0 0.00 0.08 0.00 95 1014.3
20260507050240 46 195 0.0 2.0 0.00 0.08 0.00 95 1014.3
20260507045715 46 240 0.0 2.0 0.00 0.08 0.00 95 1014.3
20260507044709 45 0 0.0 0.0 0.00 0.08 0.00 95 1014.2
20260507044217 45 0 0.0 0.0 0.00 0.08 0.00 94 1014.2
20260507043712 45 0 0.0 0.0 0.00 0.08 0.00 94 1014.2
20260507043215 45 0 0.0 0.0 0.00 0.08 0.00 94 1014.2
20260507042718 46 0 0.0 0.0 0.00 0.08 0.00 94 1014.2
20260507042211 46 0 0.0 0.0 0.00 0.08 0.00 94 1014.2
20260507041719 46 0 0.0 0.0 0.00 0.08 0.00 94 1014.1
20260507040719 46 0 0.0 0.0 0.00 0.08 0.00 94 1014.1
20260507035715 46 0 0.0 0.0 0.00 0.08 0.00 94 1014.1
20260507035218 47 0 0.0 0.0 0.00 0.08 0.00 94 1014.1
20260507034709 47 0 0.0 0.0 0.00 0.08 0.00 94 1014.1
20260507034215 47 0 0.0 0.0 0.00 0.08 0.00 94 1014.2
20260507033215 47 0 0.0 0.0 0.00 0.08 0.00 94 1014.1
20260507032210 47 0 0.0 0.0 0.00 0.08 0.00 94 1014.2
20260507031212 47 0 0.0 0.0 0.00 0.08 0.00 94 1014.2
20260507030709 47 0 0.0 0.0 0.00 0.08 0.00 94 1014.2
20260507030208 47 0 0.0 0.0 0.00 0.08 0.00 94 1014.2
20260507025715 47 0 0.0 0.0 0.00 0.08 0.00 94 1014.2
20260507025214 47 0 0.0 0.0 0.00 0.08 0.00 94 1014.1
20260507024716 47 0 0.0 0.0 0.00 0.08 0.00 93 1014.2
20260507024205 48 0 0.0 0.0 0.00 0.08 0.00 93 1014.2
20260507023712 48 0 0.0 0.0 0.00 0.08 0.00 93 1014.1
20260507023213 48 0 0.0 0.0 0.00 0.08 0.00 93 1014.2
20260507022718 48 0 0.0 0.0 0.00 0.08 0.00 93 1014.2
20260507022213 48 0 0.0 0.0 0.00 0.08 0.00 93 1014.2
20260507021211 48 0 0.0 3.0 0.00 0.08 0.00 93 1014.3
20260507020719 49 0 0.0 3.0 0.00 0.08 0.00 93 1014.2
20260507020212 49 161 2.0 2.0 0.00 0.08 0.00 93 1014.3
20260507015205 49 0 0.0 0.0 0.00 0.08 0.00 93 1014.3
20260507014214 49 0 0.0 0.0 0.00 0.08 0.00 93 1014.3
20260507013218 49 0 0.0 0.0 0.00 0.08 0.00 93 1014.4
20260507012733 49 0 0.0 0.0 0.00 0.08 0.00 92 1014.4
20260507012226 49 0 0.0 1.0 0.00 0.08 0.00 92 1014.4
20260507011705 49 0 0.0 1.0 0.00 0.08 0.00 92 1014.5
20260507011217 49 170 0.0 1.0 0.00 0.08 0.00 92 1014.5
20260507010215 49 205 0.0 3.0 0.00 0.08 0.00 92 1014.6
20260507005713 50 180 1.0 4.0 0.00 0.08 0.00 91 1014.7
20260507005206 50 241 1.0 4.0 0.00 0.08 0.00 91 1014.7
20260507004717 50 237 1.0 3.0 0.00 0.08 0.00 91 1014.7
20260507004206 50 246 1.0 4.0 0.00 0.08 0.00 91 1014.8
20260507003712 50 206 2.0 4.0 0.00 0.08 0.00 91 1014.8
20260507002210 50 181 2.0 4.0 0.00 0.08 0.00 91 1014.7
20260507001710 51 185 2.0 5.0 0.00 0.08 0.00 90 1014.7
20260507001212 51 196 2.0 5.0 0.00 0.08 0.00 90 1014.7
20260507000717 51 194 3.0 5.0 0.00 0.08 0.00 90 1014.8
20260506235718 51 213 2.0 4.0 0.00 0.08 0.00 90 1014.8
20260506235211 51 202 2.0 5.0 0.00 0.08 0.00 90 1014.8
20260506234707 51 199 3.0 5.0 0.00 0.08 0.00 90 1014.8
20260506234234 51 236 3.0 5.0 0.00 0.08 0.00 89 1014.8
20260506233716 51 213 3.0 6.0 0.00 0.08 0.00 89 1014.8
20260506233207 51 188 3.0 6.0 0.00 0.08 0.00 89 1014.7
20260506232205 52 217 3.0 4.0 0.00 0.08 0.00 89 1014.8
20260506231715 52 206 2.0 4.0 0.00 0.08 0.00 89 1014.8
20260506230216 52 199 0.0 3.0 0.00 0.08 0.00 90 1014.8
20260506225713 52 216 1.0 3.0 0.00 0.08 0.00 90 1014.7
20260506225207 52 220 2.0 3.0 0.00 0.08 0.00 90 1014.7
20260506224713 52 216 2.0 3.0 0.00 0.08 0.00 90 1014.8
20260506224205 52 189 1.0 3.0 0.00 0.08 0.00 90 1014.8
20260506223717 53 213 1.0 3.0 0.00 0.08 0.00 91 1014.7
20260506223208 53 182 1.0 3.0 0.00 0.08 0.00 90 1014.7
20260506222716 53 203 1.0 2.0 0.00 0.08 0.00 90 1014.8
20260506222214 53 209 1.0 3.0 0.00 0.08 0.00 90 1014.7
20260506221714 53 0 0.0 3.0 0.00 0.08 0.00 89 1014.6
20260506221208 53 233 1.0 4.0 0.00 0.08 0.00 89 1014.6
20260506220709 53 229 1.0 5.0 0.00 0.08 0.00 89 1014.7
20260506220217 53 243 2.0 5.0 0.00 0.08 0.08 89 1014.5
20260506215712 53 230 2.0 5.0 0.00 0.08 0.08 89 1014.5
20260506215207 53 220 2.0 4.0 0.00 0.08 0.08 88 1014.5
20260506214707 53 202 2.0 4.0 0.00 0.08 0.08 88 1014.4
20260506213712 54 182 2.0 3.0 0.00 0.08 0.08 88 1014.4
20260506213219 54 215 2.0 5.0 0.00 0.08 0.08 88 1014.4
20260506212710 54 229 2.0 5.0 0.00 0.08 0.08 89 1014.4
20260506212215 54 215 2.0 5.0 0.00 0.08 0.08 89 1014.4
20260506211714 54 209 2.0 4.0 0.00 0.08 0.08 89 1014.3
20260506211210 54 0 0.0 2.0 0.00 0.08 0.08 89 1014.3
20260506210716 54 203 0.0 2.0 0.00 0.08 0.08 90 1014.4
20260506210216 54 217 1.0 2.0 0.00 0.08 0.08 90 1014.4
20260506205217 54 198 2.0 3.0 0.00 0.08 0.08 91 1014.3
20260506204709 54 206 1.0 4.0 0.00 0.08 0.08 91 1014.3
20260506204218 54 232 1.0 4.0 0.00 0.08 0.08 91 1014.2
20260506203706 54 233 2.0 4.0 0.00 0.08 0.08 91 1014.3
20260506203205 54 240 2.0 4.0 0.00 0.08 0.08 90 1014.2
20260506202708 54 234 3.0 3.0 0.00 0.08 0.08 90 1014.2
20260506201708 54 212 0.0 3.0 0.00 0.08 0.08 91 1014.0
20260506201211 54 215 1.0 2.0 0.00 0.08 0.08 91 1014.0
20260506200734 54 198 1.0 2.0 0.00 0.08 0.08 91 1014.0
20260506200218 54 279 0.0 3.0 0.00 0.08 0.08 91 1014.0
20260506195718 54 198 0.0 3.0 0.00 0.08 0.08 91 1013.9
20260506194733 55 0 0.0 3.0 0.00 0.08 0.08 91 1013.7
20260506194219 55 222 2.0 5.0 0.00 0.08 0.08 91 1013.7
20260506193706 55 172 1.0 5.0 0.00 0.08 0.08 90 1013.6
20260506192708 55 163 2.0 4.0 0.00 0.08 0.08 90 1013.4
20260506192217 55 161 2.0 2.0 0.00 0.08 0.08 90 1013.4
20260506191723 55 140 0.0 2.0 0.00 0.08 0.08 90 1013.4
20260506191214 56 132 0.0 3.0 0.00 0.08 0.08 90 1013.3
20260506190713 56 195 0.0 6.0 0.01 0.08 0.08 90 1013.3
20260506185718 56 264 3.0 4.0 0.01 0.08 0.08 90 1013.2
20260506185210 56 210 1.0 4.0 0.02 0.08 0.08 90 1013.2
20260506184713 56 232 2.0 4.0 0.05 0.08 0.08 90 1013.1
20260506183717 56 7 1.0 5.0 0.07 0.08 0.08 89 1013.1
20260506182712 56 240 2.0 8.0 0.07 0.08 0.08 88 1013.0
20260506182219 55 246 3.0 8.0 0.07 0.08 0.08 88 1013.0
20260506181713 55 237 3.0 8.0 0.07 0.08 0.08 88 1012.8
20260506181231 55 236 1.0 8.0 0.08 0.08 0.08 88 1012.7
20260506180710 55 0 0.0 8.0 0.07 0.07 0.07 88 1012.6
20260506175709 55 185 2.0 5.0 0.07 0.07 0.07 88 1012.5
20260506174207 56 181 6.0 15.0 0.01 0.01 0.01 85 1012.5
20260506173713 56 182 6.0 15.0 0.01 0.01 0.01 84 1012.3
20260506173207 56 205 8.0 15.0 0.01 0.01 0.01 83 1012.3
20260506172714 56 229 5.0 14.0 0.01 0.01 0.01 82 1012.2
20260506172212 56 158 6.0 18.0 0.01 0.01 0.01 81 1012.3
20260506171714 56 188 7.0 19.0 0.00 0.00 0.00 80 1012.3
20260506171215 57 208 7.0 19.0 0.00 0.00 0.00 79 1011.7
20260506170212 59 227 7.0 14.0 0.00 0.00 0.00 71 1012.1
20260506165705 61 227 4.0 14.0 0.00 0.00 0.00 68 1011.9
20260506165209 62 37 4.0 10.0 0.00 0.00 0.00 62 1011.5
20260506164707 62 0 0.0 2.0 0.00 0.01 0.00 64 1011.3
20260506164206 63 338 2.0 10.0 0.00 0.02 0.00 65 1011.3
20260506163705 63 299 2.0 19.0 0.00 0.03 0.00 65 1011.2
20260506163219 63 296 2.0 19.0 0.00 0.04 0.00 63 1011.1
20260506162710 63 275 3.0 19.0 0.00 0.05 0.00 62 1011.0
20260506162228 63 261 4.0 14.0 0.00 0.06 0.00 62 1011.0
20260506161715 63 316 4.0 14.0 0.00 0.08 0.00 60 1011.0
20260506161209 64 9 2.0 12.0 0.00 0.09 0.00 62 1011.0
20260506160715 64 222 2.0 12.0 0.00 0.09 0.00 61 1010.8
20260506155213 64 255 1.0 11.0 0.00 0.38 0.00 61 1010.8
20260506154707 65 348 2.0 13.0 0.00 0.38 0.00 62 1010.8
20260506153719 64 300 5.0 11.0 0.00 0.38 0.00 62 1010.7
20260506152719 65 8 3.0 14.0 0.00 0.38 0.00 59 1010.7
20260506152217 65 15 4.0 14.0 0.00 0.38 0.00 60 1010.6
20260506151712 65 355 4.0 14.0 0.00 0.38 0.00 58 1010.6
20260506150710 65 345 6.0 17.0 0.00 0.38 0.00 58 1010.5
20260506150208 65 348 3.0 17.0 0.00 0.38 0.00 58 1010.5
20260506145715 65 286 5.0 11.0 0.00 0.38 0.00 57 1010.5
20260506145219 66 334 4.0 11.0 0.00 0.38 0.00 56 1010.5
20260506142217 68 315 5.0 13.0 0.00 0.38 0.00 50 1010.7
20260506141713 67 338 4.0 13.0 0.00 0.38 0.00 48 1010.6
20260506141215 67 277 4.0 11.0 0.00 0.38 0.00 51 1010.8
20260506140213 67 25 4.0 15.0 0.00 0.38 0.00 52 1010.8
20260506135713 66 12 6.0 15.0 0.00 0.38 0.00 55 1010.9
20260506135215 66 298 5.0 15.0 0.00 0.38 0.00 53 1010.8
20260506134206 67 313 5.0 18.0 0.00 0.38 0.00 51 1011.0
20260506133712 67 272 4.0 18.0 0.00 0.38 0.00 54 1011.0
20260506133209 67 324 5.0 11.0 0.00 0.38 0.00 52 1011.2
20260506132708 67 274 0.0 16.0 0.00 0.38 0.00 53 1011.1
20260506132213 67 264 3.0 16.0 0.00 0.38 0.00 52 1011.2
20260506131714 66 267 5.0 16.0 0.00 0.38 0.00 53 1011.1
20260506130717 66 268 2.0 15.0 0.00 0.38 0.00 55 1011.4
20260506130210 66 8 4.0 15.0 0.00 0.38 0.00 57 1011.3
20260506125718 65 344 6.0 13.0 0.00 0.38 0.00 59 1011.3
20260506125213 65 295 6.0 13.0 0.00 0.38 0.00 57 1011.3
20260506124215 66 25 2.0 15.0 0.00 0.38 0.00 55 1011.2
20260506123714 66 255 5.0 15.0 0.00 0.38 0.00 56 1011.2
20260506122710 65 355 6.0 16.0 0.00 0.38 0.00 60 1011.4
20260506121709 64 4 5.0 8.0 0.00 0.38 0.00 58 1011.4
20260506121216 64 278 2.0 11.0 0.00 0.38 0.00 57 1011.5
20260506120718 65 42 2.0 11.0 0.00 0.38 0.00 57 1011.4
20260506120210 65 341 4.0 13.0 0.00 0.38 0.00 57 1011.6
20260506115709 64 300 3.0 13.0 0.00 0.38 0.00 57 1011.6
20260506115211 64 336 4.0 13.0 0.00 0.38 0.00 60 1011.6
20260506114719 64 244 4.0 13.0 0.00 0.38 0.00 58 1011.7
20260506114209 64 315 2.0 16.0 0.00 0.38 0.00 57 1012.0
20260506113706 64 278 5.0 16.0 0.00 0.38 0.00 61 1012.0
20260506113210 64 265 4.0 13.0 0.00 0.38 0.00 57 1012.0
20260506112716 64 278 3.0 14.0 0.00 0.38 0.00 57 1012.0
20260506111707 63 275 4.0 12.0 0.00 0.38 0.00 59 1012.1
20260506111205 63 278 5.0 12.0 0.00 0.38 0.00 61 1012.2
20260506110218 63 251 2.0 14.0 0.00 0.38 0.00 60 1012.2
20260506105719 62 251 2.0 14.0 0.00 0.38 0.00 61 1012.2
20260506104712 62 288 1.0 13.0 0.00 0.38 0.00 61 1012.2
20260506104209 62 331 2.0 11.0 0.00 0.38 0.00 63 1012.3